Tracking 30923 objects as of 1-Jul-2025
HD Live streaming from Space Station
objects crossing your sky now

METEOR 2-8 DEB

Track METEOR 2-8 DEB now!
10-day predictions


NORAD ID: 36862
Int'l Code: 1982-025AZ
Perigee: 816.1 km
Apogee: 835.9 km
Inclination: 82.5 °
Period: 101.3 minutes
Semi major axis: 7196 km
RCS: 0.0072 m2 (small)
Launch date: March 25, 1982
Source: Commonwealth of Independent States (former USSR) (CIS)
Launch site: PLESETSK MISSILE AND SPACE COMPLEX (PKMTR)

Note: This is SATELLITE DEBRIS
Your satellite tracking list
FENGYUN 4A
Track 1 satellite(s)




NASA's NSSDC Master Catalog

Two Line Element Set (TLE):
1 36862U 82025AZ  25180.35700334  .00000763  00000-0  33815-3 0  9992
2 36862  82.5415 184.3105 0013761 162.5780 197.5876 14.21931538565625
Source of the keplerian elements: AFSPC